Tracking 20242 objects as of 24-Jan-2020
HD Live streaming from Space Station
objects crossing your sky now

SJ 16-02 DEB

Track SJ 16-02 DEB now!
10-day predictions


NORAD ID: 43428
Int'l Code: 2016-043C
Perigee: 607.9 km
Apogee: 1,017.4 km
Inclination: 75.0 °
Period: 101.0 minutes
Semi major axis: 7183 km
RCS: Unknown
Launch date: June 29, 2016
Source: People's Republic of China (PRC)
Launch site: Jiuquan Satellite Launch Center, China (JSC)

Note: This is SATELLITE DEBRIS
aabbcc
Your satellite tracking list
Your tracking list is empty




NASA's NSSDC Master Catalog

Two Line Element Set (TLE):
1 43428U 16043C   20023.73454643  .00000250  00000-0  74932-4 0  9994
2 43428  74.9675 200.9145 0285026 196.3286 162.8544 14.25895209184895
Source of the keplerian elements: AFSPC